Weather Service Report


939 
ASUS43 KMKX 222021
RWRWI 

WISCONSIN REGIONAL WEATHER ROUNDUP
NATIONAL WEATHER SERVICE MILWAUKEE/SULLIVAN WI
300 PM CDT THU JUN 22 2017

NOTE: "FAIR" INDICATES FEW OR NO CLOUDS BELOW 12,000 FEET WITH NO
SIGNIFICANT WEATHER AND/OR OBSTRUCTIONS TO VISIBILITY.

WIZ001-002-006>008-014>016-023>028-222100-
NORTHWEST WISCONSIN
  
CITY           SKY/WX    TMP DP  RH WIND       PRES   REMARKS
SUPERIOR ARPT  NOT AVBL                                               
ASHLAND        CLOUDY    73  51  46 VRB5      29.66F                  
HAYWARD        CLOUDY    68  57  68 SW6       29.71S                  
SIREN          CLOUDY    68  59  74 SW9       29.74R                  
CUMBERLAND     CLOUDY    63  61  94 S8        29.74R                  
RICE LAKE      DRIZZLE   65  63  93 SW3       29.77R                  
CHETEK         RAIN      65  65  98 W6        29.75R                  
LADYSMITH      LGT RAIN  66  64  96 W6        29.75S                  
EAU CLAIRE     LGT RAIN  70  67  90 S7        29.70S                  
MENOMONIE      LGT RAIN  69  69  99 W6        29.74R                  
NEW RICHMOND   RAIN      65  64  94 CALM      29.75R                  
OSCEOLA        LGT RAIN  66  66 100 CALM      29.75S                  
$$
 
WIZ003>005-009-010-017-018-222100-
NORTH CENTRAL WISCONSIN
  
CITY           SKY/WX    TMP DP  RH WIND       PRES   REMARKS
MANITOWISH WTR CLOUDY    64  62  93 SW6       29.71R                  
ARBOR VITAE    CLOUDY    64  62  93 SW6       29.69F                  
WOODRUFF       CLOUDY    64  62  93 SW6       29.69F                  
RHINELANDER    LGT RAIN  65  64  97 NW5       29.72F                  
EAGLE RIVER    CLOUDY    65  64  97 W5        29.70F                  
LAND O LAKES   CLOUDY    65  62  89 W3        29.71F                  
PHILLIPS       LGT RAIN  63  63 100 SW3       29.70S                  
TOMAHAWK       NOT AVBL                                               
MEDFORD        DRIZZLE   66  64  93 S8        29.72R                  
MERRILL        PTSUNNY   67  65  94 SW5       29.73R                  
$$
 
WIZ029-030-035-036-043>047-222100-
CENTRAL WISCONSIN
  
CITY           SKY/WX    TMP DP  RH WIND       PRES   REMARKS
WAUSAU         CLOUDY    65  63  93 SE6       29.72R                  
MOSINEE        LGT RAIN  64  64 100 SW7       29.77R                  
MARSHFIELD     CLOUDY    65  63  93 S7        29.74F                  
STEVENS POINT  CLOUDY    66  66 100 NW6       29.77R                  
WAUPACA        CLOUDY    74  70  89 SW7       29.73F                  
WAUTOMA        CLOUDY    71  68  90 SW6       29.75S                  
WISC RAPIDS    LGT RAIN  69  67  93 W6        29.78R                  
CAMP DOUGLAS   LGT RAIN  70  68  94 W3        29.77S FOG              
$$
 
WIZ011>013-019>022-031-037>040-048>050-222100-
NORTHEAST WISCONSIN
  
CITY           SKY/WX    TMP DP  RH WIND       PRES   REMARKS
ANTIGO         LGT RAIN  64  63  98 SW6       29.74F                  
SHAWANO        LGT RAIN  70  67  89 SE6       29.65F                  
OCONTO         CLOUDY    67  66  95 W7        29.73R                  
STURGEON BAY   HVY RAIN  66  66 100 NW21        N/A  FOG              
GREEN BAY      LGT RAIN  73  70  90 W12       29.74R                  
MANITOWOC      CLOUDY    74  66  76 SW9       29.76S                  
APPLETON       PTSUNNY   72  64  78 SW8       29.74F                  
CLINTONVILLE   LGT RAIN  70  66  88 SE7       29.68F                  
OSHKOSH        CLOUDY    74  65  73 W6        29.74F                  
$$
 
WIZ032>034-041-042-053>061-222100-
SOUTHWEST WISCONSIN
  
CITY           SKY/WX    TMP DP  RH WIND       PRES   REMARKS
LA CROSSE      CLOUDY    72  69  90 SE9       29.70F THUNDER          
SPARTA         TSTM      67  66  96 CALM      29.76R                  
VIROQUA        CLOUDY    68  68  99 NW7       29.78R                  
BOSCOBEL       CLOUDY    76  70  82 CALM      29.73F                  
PRAIRIE DU CHI CLOUDY    79  67  68 CALM      29.72S HX  81           
PLATTEVILLE    CLOUDY    81  70  70 S14       29.74F HX  84           
$$

WIZ056-057-062-063-064-067-068-222100-
SOUTH CENTRAL WISCONSIN
  
CITY           SKY/WX    TMP DP  RH WIND       PRES   REMARKS
REEDSBURG      DRIZZLE   69  68  96 CALM      29.74R                  
BARABOO/DELLS  CLOUDY    69  65  86 NE5       29.73F                  
LONE ROCK      LGT RAIN  75  68  78 VRB3      29.74F                  
MINERAL POINT  CLOUDY    81  72  74 S5        29.75F HX  84           
MADISON        CLOUDY    76  67  73 N8        29.76F                  
MIDDLETON      CLOUDY    77  67  71 N5        29.78F                  
WATERTOWN      CLOUDY    75  70  85 N7        29.79R                  
MONROE         CLOUDY    81  66  61 S10G18    29.76S HX  83           
JANESVILLE     PTSUNNY   82  66  57 SW15      29.75F HX  85           
$$
 
WIZ051-052-058>065-066-070>072-222100-
SOUTHEAST WISCONSIN
  
CITY           SKY/WX    TMP DP  RH WIND       PRES   REMARKS
MILWAUKEE      CLOUDY    85  67  54 SW14      29.75F HX  87           
WAUKESHA       MOSUNNY   79  66  65 W6        29.79S HX  81           
MILWAUKEE/TIMM SUNNY     81  63  54 W7        29.78R HX  82           
RACINE         CLOUDY    85  67  54 SW15G24   29.77F HX  87           
KENOSHA        CLOUDY    85  66  53 SW14      29.76F HX  87           
FOND DU LAC    LGT RAIN  73  65  75 S7        29.76F                  
SHEBOYGAN      LGT RAIN  75  66  73 SW12      29.77R                  
WEST BEND      CLOUDY    73  68  83 NW5       29.79R                  
JUNEAU         CLOUDY    73  65  76 CALM      29.79S                  
$$

LSZ147-162-222100-
LAKE SUPERIOR
  
STATION/POSITION TIME  TEMP    WIND        PRES    WAVE
                       AIR SEA DIR/SP/G            HT/PER
                 (UTC) (F)     (DEG/KT/KT) (MB)    (FT/S)
W MID LAKE BUOY  1950   47 39  250/ 10/ 10 1004.0F   1
DEVILS ISLAND    2000   65     230/ 11/ 14 1004.0F
SAXON HARBOR     1940   72     200/  6/ 10 1004.1F
$$
 
LMZ867-665-643>646-222100-
LAKE MICHIGAN
  
STATION/POSITION TIME  TEMP    WIND        PRES    WAVE
                       AIR SEA DIR/SP/G            HT/PER
                 (UTC) (F)     (DEG/KT/KT) (MB)    (FT/S)
CHAMBERS ISLAND  1940   69     240/  5/ 11 1005.8F
N MID LAKE BUOY  1950   59 55  210/ 10/ 12 1006.8R   3/ 5
NORTHPORT PIER   1940   69     270/  4/  8 1006.1F
KEWAUNEE LAKESHO 1954          230/  7/ 12 1006.0F
SHEBOYGAN LAKESH 2000   76     250/ 11/ 13 1007.5R
PORT WASHINGTON  1930   67     170/  4/  6 1009.1F
ATWATER BUOY     1909      55   40/  4/  4 1008.0R
MILWAUKEE LAKESH 2000   70      50/  7/  8   N/A
S MID LAKE BUOY  1950   66 61  200/ 10/ 10 1008.6F   2/ 4
KENOSHA   LAKESH 2000   85     210/ 10/ 19 1007.5
$$

TC  - TEMPERATURE IN CELSIUS
VSB - VISIBILITY IN STATUTE MILES
WCI - WIND CHILL INDEX
HX  - HEAT INDEX

  

Return to Home page


Western Regional Climate Center, wrcc@dri.edu